• Join FlightAware (Why Join?)
  • Login
  • US Flag GB Flag 
07:01 EDT


 

Airport Tracker/Info


-or-


 

Live Flight TrackerFlight Track Log ✈ N1926A ✈ 24-Apr-2013 ✈ KMGM - KMOB

Flight Track Log - Related Links

Times and Time Zones

All times are in EDT time to prevent confusion due to time zone crossing. See the N1926A flight status page for this flight to view local times or setup timezone preferences in your user account.

Time Position Orientation Groundspeed Altitude Reporting Facility
EDT Latitude Longitude Course Direction KTS MPH feet Rate Location/Type
08:39 32.2717 -86.3578 226° Southwest 116 133 5,400  Level Atlanta Center
08:40 32.2481 -86.3892 228° Southwest 116 133 12,000 3,300 Climbing Atlanta Center
08:41 32.2206 -86.4203 224° Southwest 127 146 12,000  Level Atlanta Center
08:42 32.1842 -86.4586 222° Southwest 153 176 12,000  Level Atlanta Center
08:43 32.1458 -86.5042 225° Southwest 182 209 12,000  Level Atlanta Center
08:44 32.0573 -86.6646 226° Southwest  Level FlightAware Approximate
08:44 32.1031 -86.5569 226° Southwest 211 243 12,000  Level Atlanta Center
08:45 32.0175 -86.7123 226° Southwest  Level FlightAware Approximate
08:45 32.0600 -86.6169 230° Southwest 229 264 12,000  Level Atlanta Center
08:46 32.0169 -86.6719 227° Southwest 234 269 12,000  Level Atlanta Center
08:47 31.9700 -86.7294 226° Southwest 239 275 12,000  Level Atlanta Center
08:48 31.9269 -86.7819 226° Southwest 239 275 12,000  Level Atlanta Center
08:49 31.8800 -86.8344 224° Southwest 239 275 12,000  Level Atlanta Center
08:50 31.8328 -86.8917 226° Southwest 239 275 12,000  Level Atlanta Center
08:51 31.7875 -86.9439 224° Southwest 239 275 12,000  Level Atlanta Center
08:52 31.7425 -86.9961 225° Southwest 233 268 12,000  Level Atlanta Center
08:53 31.6994 -87.0533 229° Southwest 238 274 12,000  Level Atlanta Center
08:54 31.6606 -87.1056 229° Southwest 238 274 12,100  Climbing Atlanta Center
08:55 31.6133 -87.1625 226° Southwest 238 274 12,100 -60 Level Atlanta Center
08:56 31.5681 -87.2147 225° Southwest 238 274 12,000 -420 Descending Atlanta Center
08:58 31.4747 -87.3222 225° Southwest 244 281 11,000 -360 Descending Houston Center
08:59 31.4275 -87.3783 225° Southwest 244 281 11,000  Level Houston Center
09:00 31.3753 -87.4442 227° Southwest 236 272 11,000  Level Houston Center
09:01 31.3258 -87.4956 222° Southwest 237 273 11,000  Level Houston Center
09:02 31.2806 -87.5497 226° Southwest 234 269 11,000 -60 Level Houston Center
09:04 31.2378 -87.6050 228° Southwest 231 266 10,900 -480 Descending Houston Center
09:05 31.1897 -87.6606 225° Southwest 238 274 10,100 -900 Descending Houston Center
09:06 31.1444 -87.7236 230° Southwest 250 288 9,100 -1,740 Descending Houston Center
09:07 31.0947 -87.7861 227° Southwest 255 293 6,600 -1,860 Descending Houston Center
09:08 31.0464 -87.8517 229° Southwest 261 300 5,300 -1,380 Descending Houston Center
09:09 31.0031 -87.9139 231° Southwest 256 295 3,800 -1,620 Descending Houston Center
09:10 30.9514 -87.9922 232° Southwest 253 291 2,000 -900 Descending Houston Center
09:11 30.9233 -88.0639 245° Southwest 246 283 2,000  Level Houston Center
09:12 30.8947 -88.1294 243° Southwest 235 270 2,000  Level Houston Center
09:13 30.8681 -88.1950 245° Southwest 227 261 2,000  Level Houston Center
09:14 30.8425 -88.2556 244° Southwest 217 250 2,000  Level Houston Center
09:15 30.8228 -88.3097 247° West 196 226 2,000  Level Houston Center
09:16 30.7822 -88.3203 193° South 184 212 2,000 -420 Level Houston Center
09:17 30.7461 -88.2897 144° Southeast 172 198 1,200 -720 Descending Houston Center
09:18 30.7181 -88.2656 143° Southeast 149 171 600 -480 Descending Houston Center
09:19 30.6897 -88.2425 145° Southeast 133 153 300 -300 Descending Houston Center
09:21 30.6914 -88.2428 North  Level Estimated